TIME,DELAY(SENSOR),PRES,OXYGEN,RAWTEMP,T(OPTODE),TCPHASE,FLUOR,BETA(BETA700),BETA(BETA412),BETA(BETA440),CDOM,C(CSC),ED(ED412.20),ED(ED444.00),ED(ED489.60),ED(ED554.30),LU(LU412.10),LU(LU443.90),LU(LU489.70),LU(LU554.70),COMP,TILTX,TILTY,CHECK
1349925199,5810,892.1699829101562000,35.4524192810058600,556.6292114257812000,4.5903191566467285,56.1753883361816400,56,102,100,78,82,15541,0,0,0,0,2147124233,2147775945,2147570368,2147572251,1069,3,13,62579
1349928795,5808,957.1400146484375000,40.3522491455078100,564.8433837890625000,4.3356909751892090,55.5111999511718750,56,100,100,78,82,15540,0,0,0,0,2147123044,2147776356,2147577097,2147570541,3270,3,13,4933
1349932395,5811,967.4699707031250000,40.6338882446289060,565.3171997070312000,4.3209881782531740,55.4718894958496100,55,98,100,78,82,15535,0,0,0,0,2147121408,2147778944,2147569024,2147568109,168,3,13,3235
1349935995,5809,1003.3900146484375000,42.1702499389648440,567.6994018554688000,4.2470297813415530,55.2661094665527340,54,98,100,76,82,15531,0,0,0,0,2147124224,2147777005,2147570496,2147567552,3329,3,13,40776
1349939595,5808,1009.2199707031250000,41.8244209289550800,567.9639282226562000,4.2388172149658200,55.3224296569824200,54,99,100,78,82,15516,0,0,0,0,2147124086,2147774692,2147571766,2147571190,162,3,13,1952
1349943195,5809,1014.7399902343750000,41.8441696166992200,568.3104858398438000,4.2280502319335940,55.3244209289550800,54,97,99,78,83,15516,0,0,0,0,2147126299,2147772169,2147573065,2147569737,233,3,13,50620
1349946795,5809,1011.0599975585938000,41.5799789428710940,568.3021850585938000,4.2283101081848145,55.3654899597168000,55,101,101,78,82,15516,0,0,0,0,2147125138,2147779638,2147567570,2147570669,246,3,13,39820
1349950395,5811,1014.0599975585938000,41.3084716796875000,567.8043823242188000,4.2437691688537600,55.4000015258789060,54,100,99,77,82,15519,0,0,0,0,2147122806,2147779373,2147571565,2147572489,3158,3,13,47881
1349953995,5806,1011.2399902343750000,40.4110717773437500,568.1536865234375000,4.2329201698303220,55.5316085815429700,55,99,101,78,83,15515,0,0,0,0,2147127104,2147780022,2147569828,2147570971,3352,3,13,1002
1349957595,5807,1008.3599853515625000,40.8056411743164060,569.0474243164062000,4.2051601409912110,55.4843215942382800,55,96,101,77,82,15518,0,0,0,0,2147122614,2147779264,2147573101,2147570002,105,3,13,14241
1349961195,5808,1012.6199951171875000,40.6288490295410160,568.5698852539062000,4.2199940681457520,55.5093383789062500,55,98,100,78,82,15516,0,0,0,0,2147125101,2147774098,2147570651,2147574125,3262,3,13,63061
1349964795,5811,1013.5000000000000000,41.2627792358398440,568.6154174804688000,4.2185797691345215,55.4140014648437500,55,97,101,78,82,15517,0,0,0,0,2147125220,2147770761,2147566957,2147568338,199,3,13,19954
1349968395,5809,1011.7700195312500000,41.5688705444335940,570.1937255859375000,4.1695418357849120,55.3867301940918000,54,99,100,79,82,15515,0,0,0,0,2147122048,2147777133,2147568429,2147573275,200,3,13,33535
1349971995,5810,1014.4899902343750000,40.4557189941406250,569.2348022460938000,4.1993370056152340,55.5384597778320300,55,99,101,79,81,15515,0,0,0,0,2147120704,2147777106,2147574217,2147569490,123,3,13,1886
1349975595,5812,1013.5399780273438000,40.4887695312500000,568.8477172851562000,4.2113628387451170,55.5284996032714840,55,99,100,78,83,15514,0,0,0,0,2147125211,2147777252,2147577334,2147571922,66,3,13,10052
1349979195,5811,1016.3400268554688000,40.2436904907226560,569.4755859375000000,4.1918540000915530,55.5715904235839840,54,101,99,79,82,15510,0,0,0,0,2147124571,2147774811,2147578139,2147570459,598,3,13,11236
1349982795,5808,1018.9500122070312000,40.1668014526367200,568.6782836914062000,4.2166252136230470,55.5766792297363300,55,115,100,78,83,15509,0,0,0,0,2147124123,2147776027,2147570496,2147571364,3570,3,13,40153
1349986395,5811,1025.9699707031250000,39.2839813232421900,566.8508300781250000,4.2733798027038570,55.6920204162597660,55,98,101,78,82,15509,0,0,0,0,2147123721,2147773385,2147574747,2147571821,74,3,13,13146
1349989995,5809,1025.6600341796875000,39.9793281555175800,567.0535888671875000,4.2670841217041020,55.5893592834472660,55,99,101,78,83,15506,0,0,0,0,2147126564,2147776118,2147573659,2147572096,474,3,13,59060
1349993595,5808,1024.9000244140625000,38.7788696289062500,566.8342285156250000,4.2738971710205080,55.7667617797851560,56,98,100,78,82,15509,0,0,0,0,2147125915,2147774976,2147574299,2147572452,334,3,13,25900
1349997195,5809,1023.4500122070312000,39.3782501220703100,567.3480224609375000,4.2579441070556640,55.6759185791015600,55,109,99,77,83,15495,0,0,0,0,2147126080,2147778523,2147575085,2147572178,466,3,13,64729
1350000795,5811,1023.0000000000000000,40.8796386718750000,568.9984741210938000,4.2066798210144040,55.4740600585937500,55,100,101,78,83,15495,0,0,0,0,2147121142,2147780123,2147575332,2147571474,36,3,13,33318
1350004395,5809,1024.3399658203125000,41.5279502868652340,568.9827880859375000,4.2071647644042970,55.3798217773437500,55,98,101,78,82,15494,0,0,0,0,2147124827,2147774244,2147570358,2147571410,205,3,13,14016
1350007995,5810,1020.1199951171875000,40.9780807495117200,569.0507812500000000,4.2050552368164060,55.4597282409668000,55,98,102,78,82,15495,0,0,0,0,2147124086,2147776612,2147574482,2147566317,93,3,13,20046
1350011595,5809,1022.1500244140625000,40.3130798339843750,568.7205200195312000,4.2153167724609375,55.5566406250000000,55,98,102,82,82,15493,0,0,0,0,2147123721,2147778880,2147574464,2147570258,3027,3,13,44611
1350015195,5809,1022.2899780273438000,40.2658805847168000,568.8580932617188000,4.2110400199890140,55.5620803833007800,56,99,100,78,82,15493,0,0,0,0,2147121152,2147783177,2147572809,2147568822,83,3,13,64075
1350018795,5812,1020.4000244140625000,40.5111808776855500,568.9287109375000000,4.2088470458984375,55.5252990722656250,54,99,99,78,82,15492,0,0,0,0,2147125476,2147775744,2147572443,2147570806,56,3,13,24129
1350022395,5809,1019.6199951171875000,40.0937004089355500,569.1583251953125000,4.2017149925231930,55.5955085754394500,56,99,101,78,81,15492,0,0,0,0,2147120822,2147774454,2147570514,2147569188,401,3,13,32317
1350025995,5811,1020.7899780273438000,39.9040107727050800,569.3228759765625000,4.1965980529785160,55.6216316223144500,55,98,100,79,82,15492,0,0,0,0,2147126253,2147775277,2147577307,2147572470,75,3,13,40825
1350029595,5810,1017.3699951171875000,40.3160591125488300,569.6326293945312000,4.1869769096374510,55.5654106140136700,55,99,102,77,82,15478,0,0,0,0,2147120841,2147779099,2147569819,2147572233,10,3,13,17568
1350033195,5808,1022.2899780273438000,40.9444313049316400,569.5422973632812000,4.1897830963134770,55.4736213684082000,55,99,102,78,82,15492,0,0,0,0,2147122029,2147773248,2147570752,2147574107,178,3,13,29059
1350036795,5810,1024.9300537109375000,40.7955894470214840,568.9495849609375000,4.2081990242004395,55.4824790954589840,55,97,102,77,82,15493,0,0,0,0,2147126692,2147774372,2147571538,2147570898,116,3,13,7643
1350040395,5809,1022.4699707031250000,40.4266090393066400,568.9699707031250000,4.2075629234313965,55.5428695678710940,53,99,103,77,82,15489,0,0,0,0,2147124818,2147773312,2147576722,2147571264,217,3,13,5724
1350043995,5810,1027.3000488281250000,40.9637603759765600,569.0734863281250000,4.2043499946594240,55.4594993591308600,56,98,101,79,84,15491,0,0,0,0,2147122660,2147777005,2147571108,2147571584,238,3,13,13899
1350047595,5812,1023.3800048828125000,40.0193710327148440,569.2916259765625000,4.1975750923156740,55.6092491149902340,55,99,101,79,82,15495,0,0,0,0,2147127204,2147775360,2147572416,2147570669,3540,3,13,29827
1350051195,5809,1026.6099853515625000,40.7125396728515600,569.3710937500000000,4.1951031684875490,55.5033111572265600,55,98,101,77,83,15494,0,0,0,0,2147124562,2147779364,2147571785,2147569572,581,3,13,11271
1350054795,5809,1023.2999877929688000,40.7304496765136700,568.9840087890625000,4.2071290016174320,55.4982490539550800,56,99,100,78,83,15495,0,0,0,0,2147121636,2147783122,2147570861,2147570596,338,3,13,42427
1350058395,5809,1030.4000244140625000,40.5267181396484400,568.9935302734375000,4.2068328857421875,55.5228309631347660,55,101,101,77,83,15493,0,0,0,0,2147122898,2147775058,2147574345,2147568100,3541,3,13,38652
1350061995,5807,1028.4899902343750000,40.7809906005859400,568.8759765625000000,4.2104840278625490,55.4852905273437500,55,100,101,78,83,15491,0,0,0,0,2147124041,2147773028,2147569837,2147571072,396,3,13,31990
1350065595,5811,1027.6500244140625000,40.6590194702148440,569.0491943359375000,4.2051029205322270,55.5055618286132800,55,101,101,79,83,15495,0,0,0,0,2147124150,2147773074,2147570642,2147569764,47,3,13,8298
1350069195,5811,1021.2999877929688000,40.5377311706543000,570.2827148437500000,4.1667771339416500,55.5412712097168000,55,99,100,78,83,15493,0,0,0,0,2147125997,2147772242,2147573568,2147570596,3532,3,13,39335
1350069957,5809,1025.8100585937500000,40.9735107421875000,570.3715820312500000,4.1640129089355470,55.4764213562011700,55,99,101,78,81,15494,0,0,0,0,2147123154,2147777371,2147573037,2147570770,166,3,13,37283
